Location: Key Biscayne
(25.6930°N, 80.1630°W)
Time: 21:18:47
(UTC-05:00)

Vanguard 1 - Pass Details

Date: 23 November 2017
Orbit: 650 x 3833 km, 34.2° (Epoch: 09 December)

Event Time Altitude Azimuth Distance (km) Brightness Sun altitude
Rises 20:02:21 0° 296° (WNW) 2,954 13.3 -33.9°
Reaches altitude 10° 20:04:30 10° 299° (WNW) 2,061 12.3 -34.4°
Enters shadow 20:05:43 19° 303° (WNW) 1,577 11.5 -34.7°
